When you browse on this site, cookies collect data to enhance your experience and personalize the content and advertising you see.
Visit our Privacy Policy to learn more. By continuing to use the site, you agree to this use of cookies and data.
  • In France
  • List of Countries
  • For 7 days
  • Water Temperature
  • Weather Map
  • Weather Widgets
  • user-avatar
    Login

    Hourly Weather Makadi Bey

    Today, 6 December, Friday

    Time Temperature Precipitation Wind Pressure Humidity
    00:00 +12°C° 0 mm 1 mps 707 mmHg 44%
    01:00 +12°C° 0 mm 1 mps 707 mmHg 43%
    02:00 +12°C° 0 mm 1 mps 706 mmHg 41%
    03:00 +12°C° 0 mm 1 mps 707 mmHg 45%
    04:00 +12°C° 0 mm 1 mps 707 mmHg 49%
    05:00 +11°C° 0 mm 1 mps 707 mmHg 54%
    06:00 +14°C° 0 mm 1 mps 708 mmHg 45%
    07:00 +18°C° 0 mm 1 mps 708 mmHg 37%
    08:00 +20°C° 0 mm 1 mps 709 mmHg 28%
    09:00 +21°C° 0 mm 2 mps 709 mmHg 25%
    10:00 +24°C° 0 mm 2 mps 710 mmHg 21%
    11:00 +27°C° 0 mm 3 mps 710 mmHg 18%
    12:00 +27°C° 0 mm 4 mps 710 mmHg 17%
    13:00 +27°C° 0 mm 5 mps 709 mmHg 17%
    14:00 +28°C° 0 mm 6 mps 709 mmHg 16%
    15:00 +25°C° 0 mm 5 mps 708 mmHg 24%
    16:00 +22°C° 0 mm 4 mps 708 mmHg 31%
    17:00 +20°C° 0 mm 3 mps 708 mmHg 39%
    18:00 +18°C° 0 mm 3 mps 708 mmHg 46%
    19:00 +17°C° 0 mm 2 mps 708 mmHg 54%
    20:00 +15°C° 0 mm 2 mps 708 mmHg 62%
    21:00 +14°C° 0 mm 2 mps 708 mmHg 65%
    22:00 +14°C° 0 mm 2 mps 708 mmHg 69%
    23:00 +13°C° 0 mm 2 mps 708 mmHg 72%

    Tomorrow, 7 December, Saturday

    Time Temperature Precipitation Wind Pressure Humidity
    00:00 +12°C° 0 mm 2 mps 708 mmHg 74%
    01:00 +12°C° 0 mm 2 mps 707 mmHg 76%
    02:00 +10°C° 0 mm 2 mps 707 mmHg 78%
    03:00 +9°C° 0 mm 2 mps 707 mmHg 79%
    04:00 +10°C° 0 mm 1 mps 707 mmHg 81%
    05:00 +9°C° 0 mm 1 mps 707 mmHg 83%
    06:00 +11°C° 0 mm 1 mps 708 mmHg 77%
    07:00 +12°C° 0 mm 1 mps 708 mmHg 71%
    08:00 +14°C° 0 mm 1 mps 708 mmHg 65%
    09:00 +15°C° 0 mm 2 mps 709 mmHg 55%
    10:00 +17°C° 0 mm 2 mps 709 mmHg 45%
    11:00 +19°C° 0 mm 2 mps 709 mmHg 35%
    12:00 +20°C° 0 mm 2 mps 708 mmHg 32%
    13:00 +21°C° 0 mm 2 mps 708 mmHg 28%
    14:00 +23°C° 0 mm 2 mps 708 mmHg 25%
    15:00 +20°C° 0 mm 2 mps 708 mmHg 32%
    16:00 +17°C° 0 mm 2 mps 707 mmHg 39%
    17:00 +15°C° 0 mm 2 mps 707 mmHg 46%
    18:00 +14°C° 0 mm 2 mps 707 mmHg 54%
    19:00 +12°C° 0 mm 1 mps 707 mmHg 61%
    20:00 +11°C° 0 mm 1 mps 707 mmHg 69%
    21:00 +10°C° 0 mm 1 mps 707 mmHg 71%
    22:00 +10°C° 0 mm 1 mps 707 mmHg 73%
    23:00 +9°C° 0 mm 1 mps 707 mmHg 75%

    Day after tomorrow, 8 December, Sunday

    Time Temperature Precipitation Wind Pressure Humidity
    00:00 +9°C° 0 mm 1 mps 707 mmHg 75%
    01:00 +9°C° 0 mm 1 mps 707 mmHg 76%
    02:00 +8°C° 0 mm 1 mps 707 mmHg 76%
    03:00 +8°C° 0 mm 1 mps 706 mmHg 75%
    04:00 +8°C° 0 mm 1 mps 706 mmHg 75%
    05:00 +7°C° 0 mm 1 mps 706 mmHg 74%
    06:00 +10°C° 0 mm 1 mps 707 mmHg 64%
    07:00 +12°C° 0 mm 1 mps 707 mmHg 54%
    08:00 +13°C° 0 mm 0 mps 708 mmHg 44%
    09:00 +16°C° 0 mm 1 mps 708 mmHg 39%
    10:00 +18°C° 0 mm 1 mps 708 mmHg 34%
    11:00 +19°C° 0 mm 2 mps 708 mmHg 29%
    12:00 +20°C° 0 mm 3 mps 708 mmHg 26%
    13:00 +21°C° 0 mm 3 mps 708 mmHg 23%
    14:00 +22°C° 0 mm 4 mps 708 mmHg 21%
    15:00 +20°C° 0 mm 4 mps 707 mmHg 26%
    16:00 +18°C° 0 mm 3 mps 707 mmHg 31%
    17:00 +16°C° 0 mm 3 mps 707 mmHg 37%
    18:00 +14°C° 0 mm 2 mps 707 mmHg 45%
    19:00 +13°C° 0 mm 2 mps 707 mmHg 54%
    20:00 +12°C° 0 mm 2 mps 707 mmHg 63%
    21:00 +10°C° 0 mm 2 mps 707 mmHg 67%
    22:00 +9°C° 0 mm 2 mps 707 mmHg 70%
    23:00 +10°C° 0 mm 1 mps 707 mmHg 74%

    9 December, Monday

    Time Temperature Precipitation Wind Pressure Humidity
    00:00 +10°C° 0 mm 1 mps 706 mmHg 74%
    01:00 +9°C° 0 mm 2 mps 706 mmHg 74%
    02:00 +8°C° 0 mm 2 mps 706 mmHg 74%
    03:00 +8°C° 0 mm 2 mps 705 mmHg 74%
    04:00 +8°C° 0 mm 2 mps 705 mmHg 73%
    05:00 +8°C° 0 mm 2 mps 705 mmHg 73%
    06:00 +10°C° 0 mm 2 mps 706 mmHg 64%
    07:00 +13°C° 0 mm 2 mps 706 mmHg 56%
    08:00 +14°C° 0 mm 3 mps 707 mmHg 48%
    09:00 +17°C° 0 mm 3 mps 707 mmHg 41%
    10:00 +19°C° 0 mm 4 mps 708 mmHg 34%
    11:00 +21°C° 0 mm 5 mps 708 mmHg 27%
    12:00 +22°C° 0 mm 6 mps 707 mmHg 26%
    13:00 +22°C° 0 mm 6 mps 707 mmHg 25%
    14:00 +23°C° 0 mm 7 mps 706 mmHg 25%
    15:00 +21°C° 0 mm 6 mps 706 mmHg 28%
    16:00 +20°C° 0 mm 6 mps 706 mmHg 32%
    17:00 +17°C° 0 mm 5 mps 706 mmHg 35%
    18:00 +17°C° 0 mm 4 mps 706 mmHg 39%
    19:00 +14°C° 0 mm 4 mps 706 mmHg 43%
    20:00 +13°C° 0 mm 3 mps 707 mmHg 48%
    21:00 +13°C° 0 mm 3 mps 706 mmHg 50%
    22:00 +12°C° 0 mm 3 mps 706 mmHg 52%
    23:00 +12°C° 0 mm 3 mps 706 mmHg 54%

    10 December, Tuesday

    Time Temperature Precipitation Wind Pressure Humidity
    00:00 +11°C° 0 mm 3 mps 706 mmHg 57%
    01:00 +12°C° 0 mm 2 mps 706 mmHg 59%
    02:00 +12°C° 0 mm 2 mps 706 mmHg 62%
    03:00 +10°C° 0 mm 2 mps 706 mmHg 65%
    04:00 +10°C° 0 mm 2 mps 706 mmHg 69%
    05:00 +10°C° 0 mm 2 mps 706 mmHg 73%
    06:00 +12°C° 0 mm 2 mps 707 mmHg 67%
    07:00 +12°C° 0 mm 3 mps 707 mmHg 61%
    08:00 +14°C° 0 mm 3 mps 708 mmHg 55%
    09:00 +17°C° 0 mm 3 mps 708 mmHg 46%
    10:00 +18°C° 0 mm 3 mps 708 mmHg 36%
    11:00 +20°C° 0 mm 4 mps 708 mmHg 26%
    12:00 +20°C° 0 mm 4 mps 708 mmHg 24%
    13:00 +21°C° 0 mm 4 mps 707 mmHg 23%
    14:00 +22°C° 0 mm 4 mps 707 mmHg 21%
    15:00 +19°C° 0 mm 3 mps 707 mmHg 28%
    16:00 +17°C° 0 mm 2 mps 706 mmHg 36%
    17:00 +15°C° 0 mm 1 mps 706 mmHg 44%
    18:00 +14°C° 0 mm 1 mps 706 mmHg 52%
    19:00 +12°C° 0 mm 1 mps 706 mmHg 60%
    20:00 +11°C° 0 mm 1 mps 706 mmHg 68%
    21:00 +11°C° 0 mm 1 mps 706 mmHg 69%
    22:00 +11°C° 0 mm 1 mps 706 mmHg 70%
    23:00 +10°C° 0 mm 1 mps 706 mmHg 71%

    11 December, Wednesday

    Time Temperature Precipitation Wind Pressure Humidity
    00:00 +10°C° 0 mm 1 mps 706 mmHg 71%
    01:00 +10°C° 0 mm 1 mps 706 mmHg 71%
    02:00 +9°C° 0 mm 1 mps 705 mmHg 70%
    03:00 +9°C° 0 mm 1 mps 705 mmHg 71%
    04:00 +9°C° 0 mm 1 mps 705 mmHg 71%
    05:00 +9°C° 0 mm 1 mps 705 mmHg 71%
    06:00 +11°C° 0 mm 1 mps 706 mmHg 64%
    07:00 +13°C° 0 mm 1 mps 706 mmHg 56%
    08:00 +15°C° 0 mm 1 mps 707 mmHg 49%
    09:00 +17°C° 0 mm 2 mps 707 mmHg 45%
    10:00 +18°C° 0 mm 2 mps 707 mmHg 41%
    11:00 +20°C° 0 mm 3 mps 707 mmHg 37%
    12:00 +20°C° 0 mm 3 mps 706 mmHg 36%
    13:00 +21°C° 0 mm 3 mps 706 mmHg 36%
    14:00 +21°C° 0 mm 3 mps 705 mmHg 35%
    15:00 +19°C° 0 mm 3 mps 705 mmHg 45%
    16:00 +18°C° 0 mm 3 mps 704 mmHg 54%
    17:00 +16°C° 0 mm 3 mps 703 mmHg 63%
    18:00 +15°C° 0 mm 2 mps 703 mmHg 69%
    19:00 +14°C° 0 mm 2 mps 703 mmHg 74%
    20:00 +12°C° 0 mm 1 mps 703 mmHg 80%
    21:00 +12°C° 0 mm 1 mps 703 mmHg 80%
    22:00 +12°C° 0 mm 1 mps 703 mmHg 81%
    23:00 +12°C° 0 mm 1 mps 703 mmHg 81%
    Show more